TimeCDT,TemperatureF,Dew PointF,Humidity,Sea Level PressureIn,VisibilityMPH,Wind Direction,Wind SpeedMPH,Gust SpeedMPH,PrecipitationIn,Events,Conditions,WindDirDegrees,DateUTC
12:53 AM,68.0,55.9,65,29.82,10.0,South,17.3,24.2,N/A,,Clear,170,2013-04-23 05:53:00
1:53 AM,66.9,57.0,70,29.81,10.0,South,18.4,-,N/A,,Clear,170,2013-04-23 06:53:00
2:53 AM,66.0,57.9,75,29.78,10.0,South,20.7,31.1,N/A,,Scattered Clouds,170,2013-04-23 07:53:00
3:10 AM,66.0,59.0,78,29.80,10.0,South,21.9,29.9,N/A,,Mostly Cloudy,170,2013-04-23 08:10:00
3:53 AM,64.9,59.0,81,29.78,10.0,South,20.7,27.6,N/A,,Mostly Cloudy,170,2013-04-23 08:53:00
4:31 AM,64.0,59.0,84,29.79,10.0,South,16.1,28.8,N/A,,Scattered Clouds,170,2013-04-23 09:31:00
4:40 AM,64.0,59.0,84,29.79,10.0,South,15.0,-,N/A,,Mostly Cloudy,170,2013-04-23 09:40:00
4:53 AM,64.4,59.0,83,29.79,10.0,South,20.7,27.6,N/A,,Mostly Cloudy,180,2013-04-23 09:53:00
5:12 AM,64.9,59.0,81,29.88,10.0,WNW,6.9,-,N/A,,Mostly Cloudy,300,2013-04-23 10:12:00
5:53 AM,64.9,59.0,81,29.84,10.0,South,11.5,-,N/A,,Overcast,180,2013-04-23 10:53:00
6:53 AM,64.9,59.0,81,29.86,8.0,South,9.2,-,0.00,,Light Drizzle,180,2013-04-23 11:53:00
7:10 AM,64.0,60.1,87,29.87,9.0,SSE,13.8,-,0.00,,Light Drizzle,160,2013-04-23 12:10:00
7:21 AM,64.0,60.1,87,29.88,8.0,South,10.4,-,0.00,,Overcast,170,2013-04-23 12:21:00
7:53 AM,64.0,60.1,87,29.87,8.0,South,8.1,-,0.00,,Overcast,170,2013-04-23 12:53:00
8:09 AM,64.0,60.1,87,29.90,9.0,South,11.5,-,N/A,,Overcast,180,2013-04-23 13:09:00
8:18 AM,64.0,60.1,87,29.91,9.0,South,10.4,-,N/A,,Overcast,170,2013-04-23 13:18:00
8:30 AM,64.0,60.1,87,29.91,10.0,South,8.1,-,N/A,,Overcast,180,2013-04-23 13:30:00
8:53 AM,64.0,61.0,90,29.90,6.0,South,11.5,-,0.00,Rain,Light Rain,180,2013-04-23 13:53:00
9:16 AM,63.0,60.1,90,29.94,2.0,WNW,18.4,23.0,0.00,Rain,Light Rain,290,2013-04-23 14:16:00
9:28 AM,54.0,51.1,90,29.94,1.5,WNW,23.0,-,0.02,Rain,Light Rain,290,2013-04-23 14:28:00
9:32 AM,54.0,50.0,86,29.95,2.0,WNW,21.9,-,0.03,Rain,Light Rain,290,2013-04-23 14:32:00
9:53 AM,52.0,48.0,86,29.95,3.0,WNW,20.7,28.8,0.03,,Light Drizzle,290,2013-04-23 14:53:00
10:29 AM,51.1,46.9,86,29.98,3.0,WNW,17.3,-,0.00,,Light Drizzle,290,2013-04-23 15:29:00
10:53 AM,50.0,46.0,86,29.99,3.0,NW,19.6,23.0,0.00,,Light Drizzle,310,2013-04-23 15:53:00
11:53 AM,48.0,43.0,83,30.03,10.0,NW,18.4,-,0.00,,Overcast,310,2013-04-23 16:53:00
12:53 PM,48.0,42.1,80,30.03,10.0,NW,16.1,-,N/A,,Overcast,320,2013-04-23 17:53:00
1:53 PM,48.0,41.0,77,30.03,10.0,NW,17.3,-,N/A,,Overcast,320,2013-04-23 18:53:00
2:53 PM,46.9,41.0,80,30.03,10.0,NNW,18.4,-,N/A,,Overcast,340,2013-04-23 19:53:00
3:26 PM,48.0,39.9,74,30.03,10.0,NNW,17.3,-,N/A,,Overcast,340,2013-04-23 20:26:00
3:53 PM,48.0,39.9,74,30.02,10.0,NNW,16.1,-,N/A,,Overcast,340,2013-04-23 20:53:00
4:53 PM,46.9,39.0,74,30.02,10.0,NNW,17.3,-,N/A,,Overcast,340,2013-04-23 21:53:00
5:53 PM,46.9,39.0,74,30.03,10.0,NNW,16.1,-,N/A,,Overcast,340,2013-04-23 22:53:00
6:53 PM,46.0,37.9,73,30.04,10.0,North,19.6,-,0.00,,Overcast,350,2013-04-23 23:53:00
7:53 PM,46.0,37.9,73,30.06,10.0,NNW,15.0,25.3,N/A,,Overcast,340,2013-04-24 00:53:00
8:53 PM,45.0,37.0,74,30.08,10.0,North,21.9,-,N/A,,Overcast,350,2013-04-24 01:53:00
9:53 PM,44.1,37.0,76,30.13,10.0,NNW,20.7,-,0.00,Rain,Light Rain,340,2013-04-24 02:53:00
10:53 PM,42.1,37.0,82,30.16,10.0,NNW,21.9,-,0.00,Rain,Light Rain,340,2013-04-24 03:53:00
11:45 PM,41.0,37.0,86,30.19,10.0,NNW,19.6,27.6,0.00,Rain,Light Rain,340,2013-04-24 04:45:00
11:53 PM,41.0,37.0,86,30.18,10.0,NNW,21.9,33.4,0.00,Rain,Light Rain,340,2013-04-24 04:53:00